Location: Balaclava NSW 2575, Australia
(34.4510°S, 150.4953°E)
Time: 20:44:00
(UTC+10:00)

Tianhe-1 - Visible Passes

Search period start: 06 May 2021 00:00
Search period end: 16 May 2021 00:00
Orbit: 351 x 385 km, 41.5° (Epoch: 05 May)

Date Brightness Start Highest point End Pass type
(mag) Time Alt. Az. Time Alt. Az. Time Alt. Az.
06 May 3.5 18:49:42 10° W 18:51:56 18° NW 18:53:13 15° N visible
07 May 2.4 17:44:16 10° WSW 17:47:10 39° NNW 17:50:04 10° NE visible
08 May 4.2 18:17:19 10° WNW 18:18:24 11° NW 18:19:30 10° NNW visible
